KMASWX Weather Reports


time (UTC)temp
C
wind
direction
speed
KPH
gust
KPH
rain 1hr
cm
rain 24hr
cm
rain mn
cm
humidity
%
barometer
mb
20260504150951 15 202 0.0 0.0 0.00 0.00 0.00 52
20260504150443 14 202 0.0 0.0 0.00 0.00 0.00 54
20260504140853 12 33 0.0 0.0 0.00 0.00 0.00 58
20260504140350 12 33 0.0 0.0 0.00 0.00 0.00 60
20260504130757 10 35 0.0 3.2 0.00 0.00 0.00 62
20260504130253 10 26 0.0 4.8 0.00 0.00 0.00 63
20260504110606 11 30 3.2 6.4 0.00 0.00 0.00 57
20260504081833 15 23 0.0 6.4 0.00 0.00 0.00 44
20260504081329 14 2 4.8 6.4 0.00 0.00 0.00 45
20260504080825 14 348 4.8 4.8 0.00 0.00 0.00 46
20260504080321 14 243 0.0 0.0 0.00 0.00 0.00 47
20260504070217 15 135 0.0 3.2 0.00 0.00 0.00 42
20260504060121 16 282 0.0 0.0 0.00 0.00 0.00 39
20260504050530 17 29 8.0 1.6 0.00 0.00 0.00 35
20260504045522 18 23 6.4 4.8 0.00 0.00 0.00 35
20260504045016 18 336 0.0 1.6 0.00 0.00 0.00 34
20260504044512 19 336 0.0 3.2 0.00 0.00 0.00 32
20260504044008 19 85 0.0 4.8 0.00 0.00 0.00 32
20260504043502 20 16 1.6 3.2 0.00 0.00 0.00 31
20260504042958 20 23 1.6 3.2 0.00 0.00 0.00 30
20260504041948 20 26 3.2 6.4 0.00 0.00 0.00 29
20260504040940 20 25 6.4 8.0 0.00 0.00 0.00 29
20260504040436 20 9 4.8 8.0 0.00 0.00 0.00 29
20260504035426 20 15 6.4 8.0 0.00 0.00 0.00 28
20260504034922 21 340 6.4 8.0 0.00 0.00 0.00 28
20260504034415 21 298 4.8 9.7 0.00 0.00 0.00 27
20260504033912 21 302 6.4 9.7 0.00 0.00 0.00 27
20260504033408 22 350 6.4 8.0 0.00 0.00 0.00 26
20260504032904 22 23 4.8 8.0 0.00 0.00 0.00 25
20260504032357 22 33 0.0 4.8 0.00 0.00 0.00 25
20260504031853 22 22 4.8 6.4 0.00 0.00 0.00 25
20260504031346 23 358 0.0 6.4 0.00 0.00 0.00 25
20260504030842 23 8 6.4 4.8 0.00 0.00 0.00 25
20260504030338 23 25 0.0 4.8 0.00 0.00 0.00 25
20260504025834 23 30 1.6 6.4 0.00 0.00 0.00 24
20260504025331 25 198 0.0 0.0 0.00 0.00 0.00 24
20260504024324 26 198 0.0 1.6 0.00 0.00 0.00 20
20260504023821 26 180 0.0 0.0 0.00 0.00 0.00 20
20260504023317 26 180 0.0 1.6 0.00 0.00 0.00 19
20260504022814 26 209 1.6 6.4 0.00 0.00 0.00 19
20260504022307 26 202 3.2 6.4 0.00 0.00 0.00 19
20260504021803 26 239 3.2 6.4 0.00 0.00 0.00 17
20260504021259 26 243 1.6 8.0 0.00 0.00 0.00 19
20260504020752 26 247 4.8 9.7 0.00 0.00 0.00 17
20260504020248 26 243 8.0 12.9 0.00 0.00 0.00 18
20260504015238 26 220 3.2 14.5 0.00 0.00 0.00 18
20260504014734 27 223 8.0 16.1 0.00 0.00 0.00 18
20260504014231 26 234 8.0 14.5 0.00 0.00 0.00 18
20260504013727 26 203 11.3 24.1 0.00 0.00 0.00 18
20260504013224 27 219 17.7 25.7 0.00 0.00 0.00 17
20260504012717 27 157 8.0 24.1 0.00 0.00 0.00 18
20260504012214 27 236 9.7 25.7 0.00 0.00 0.00 18
20260504011711 27 219 11.3 32.2 0.00 0.00 0.00 17
20260504011207 27 243 12.9 24.1 0.00 0.00 0.00 16
20260504010703 27 205 12.9 22.5 0.00 0.00 0.00 16
20260504010159 27 188 9.7 29.0 0.00 0.00 0.00 17
20260504005655 27 248 20.9 32.2 0.00 0.00 0.00 15
20260504005150 27 267 14.5 29.0 0.00 0.00 0.00 16
20260504004139 27 271 12.9 24.1 0.00 0.00 0.00 15
20260504003632 27 260 12.9 24.1 0.00 0.00 0.00 14
20260504003126 28 243 12.9 27.4 0.00 0.00 0.00 14
20260504002622 27 270 17.7 27.4 0.00 0.00 0.00 14
20260504001612 27 234 4.8 27.4 0.00 0.00 0.00 15
20260504001108 28 232 9.7 20.9 0.00 0.00 0.00 16
20260504000601 27 226 6.4 22.5 0.00 0.00 0.00 16
20260504000058 28 292 9.7 25.7 0.00 0.00 0.00 15
20260503235554 27 265 12.9 24.1 0.00 0.00 0.00 15
20260503235051 28 230 8.0 22.5 0.00 0.00 0.00 14
20260503234041 28 331 9.7 20.9 0.00 0.00 0.00 15
20260503233534 28 244 11.3 22.5 0.00 0.00 0.00 16
20260503232527 28 236 14.5 19.3 0.00 0.00 0.00 15
20260503231520 28 161 12.9 19.3 0.00 0.00 0.00 15
20260503231017 28 233 19.3 24.1 0.00 0.00 0.00 16
20260503230511 27 219 16.1 20.9 0.00 0.00 0.00 16
20260503230007 27 222 14.5 20.9 0.00 0.00 0.00 16
20260503225503 28 274 16.1 24.1 0.00 0.00 0.00 16
20260503225000 28 212 17.7 17.7 0.00 0.00 0.00 17
20260503224454 27 227 8.0 24.1 0.00 0.00 0.00 16
20260503223950 27 201 16.1 17.7 0.00 0.00 0.00 17
20260503223446 27 226 11.3 24.1 0.00 0.00 0.00 18
20260503222940 27 253 17.7 29.0 0.00 0.00 0.00 17
20260503222435 27 309 9.7 25.7 0.00 0.00 0.00 19
20260503221932 26 284 14.5 17.7 0.00 0.00 0.00 17
20260503221428 27 286 9.7 19.3 0.00 0.00 0.00 19
20260503220417 28 164 0.0 12.9 0.00 0.00 0.00 20
20260503215913 28 99 0.0 16.1 0.00 0.00 0.00 19
20260503215407 28 168 11.3 12.9 0.00 0.00 0.00 20
20260503214903 28 75 4.8 16.1 0.00 0.00 0.00 20
20260503214359 27 247 9.7 14.5 0.00 0.00 0.00 22
20260503213853 28 165 4.8 9.7 0.00 0.00 0.00 19
20260503213350 28 156 4.8 12.9 0.00 0.00 0.00 20
20260503212342 27 215 8.0 14.5 0.00 0.00 0.00 22
20260503211836 27 203 9.7 14.5 0.00 0.00 0.00 23
20260503211332 27 142 8.0 11.3 0.00 0.00 0.00 21
20260503210829 27 149 0.0 9.7 0.00 0.00 0.00 21
20260503210325 27 104 8.0 12.9 0.00 0.00 0.00 22
20260503205822 27 167 12.9 12.9 0.00 0.00 0.00 23
20260503205312 27 163 11.3 14.5 0.00 0.00 0.00 21
20260503204805 27 95 8.0 11.3 0.00 0.00 0.00 22
20260503204301 26 156 8.0 11.3 0.00 0.00 0.00 23
20260503203758 26 133 6.4 17.7 0.00 0.00 0.00 24
20260503203250 26 163 11.3 12.9 0.00 0.00 0.00 24
20260503202747 26 153 6.4 12.9 0.00 0.00 0.00 23
20260503202242 26 202 8.0 12.9 0.00 0.00 0.00 23
20260503201736 26 182 3.2 12.9 0.00 0.00 0.00 24
20260503201232 26 180 3.2 9.7 0.00 0.00 0.00 24
20260503200728 25 142 3.2 14.5 0.00 0.00 0.00 28
20260503195718 25 177 6.4 9.7 0.00 0.00 0.00 25
20260503194207 24 133 11.3 12.9 0.00 0.00 0.00 26
20260503193702 24 163 11.3 12.9 0.00 0.00 0.00 27
20260503193158 23 111 11.3 8.0 0.00 0.00 0.00 27
20260503192655 23 246 3.2 16.1 0.00 0.00 0.00 27
20260503192151 23 87 4.8 11.3 0.00 0.00 0.00 29
20260503191643 24 135 6.4 9.7 0.00 0.00 0.00 27
20260503191140 24 98 6.4 4.8 0.00 0.00 0.00 29
20260503190130 23 101 3.2 8.0 0.00 0.00 0.00 28
20260503185625 22 185 0.0 8.0 0.00 0.00 0.00 29
20260503185121 22 171 6.4 11.3 0.00 0.00 0.00 30
20260503184614 22 130 3.2 9.7 0.00 0.00 0.00 29
20260503184110 21 188 3.2 8.0 0.00 0.00 0.00 32
20260503183607 21 106 3.2 6.4 0.00 0.00 0.00 30
20260503183100 20 147 6.4 9.7 0.00 0.00 0.00 31
20260503182557 20 142 6.4 8.0 0.00 0.00 0.00 31
20260503181549 20 80 0.0 8.0 0.00 0.00 0.00 33
20260503181042 20 229 4.8 8.0 0.00 0.00 0.00 33
20260503180539 20 177 6.4 9.7 0.00 0.00 0.00 33
20260503180035 20 189 6.4 8.0 0.00 0.00 0.00 33
20260503175530 19 215 0.0 11.3 0.00 0.00 0.00 35
20260503175027 20 158 3.2 6.4 0.00 0.00 0.00 35
20260503174018 18 164 3.2 8.0 0.00 0.00 0.00 39
20260503173010 17 95 0.0 9.7 0.00 0.00 0.00 39
20260503172504 17 185 9.7 8.0 0.00 0.00 0.00 38
20260503171957 17 154 0.0 9.7 0.00 0.00 0.00 42
20260503171453 17 246 4.8 11.3 0.00 0.00 0.00 44
20260503170950 17 250 0.0 6.4 0.00 0.00 0.00 42
20260503170444 17 255 0.0 6.4 0.00 0.00 0.00 43